Other Surface Observations
Issued by NWS Tucson, AZ

Home | Current Version | Previous Version | Text Only | Print | Product List | Glossary On
Versions: 1 2 3 4 5 6 7 8 9 10 11 12 13 14 15 16 17 18 19 20 21 22 23 24 25 26 27 28 29 30 31 32 33 34 35 36 37 38 39 40 41 42 43 44 45 46 47 48 49 50
000
SXUS55 KTWC 231915
OSOTWC

WEATHER ROUNDUP FOR SOUTHEAST ARIZONA
NATIONAL WEATHER SERVICE TUCSON AZ
1215 PM MST MON JAN 23 2017

AZZ504>506-514-232015-
LOCATION       SKY/WX    TMP DP  RH WIND       PRES   REMARKS
TUCSON         CLOUDY    65  39  38 S17       29.93F
DAVIS-MONTHAN  SUNNY     65  39  38 S15       29.91F
CHILDRENS PARK N/A      N/A N/A  24 SE9               PIMA CO DEQ
ALVERNON/22ND  N/A       63 N/A N/A S10               PIMA CO DEQ
CHERRY/GLENN   N/A      N/A N/A N/A N/A               PIMA CO DEQ
TANGERINE      N/A       62 N/A N/A S12               PIMA CO DEQ
CONTL RANCH    N/A       65  28  25 SE8               PIMA CO DEQ
GRANT/1ST      N/A       64  27  25 SE6               PIMA CO DEQ
CRAYCROFT/22ND N/A       63  30  29 N/A               PIMA CO DEQ
GOLFLINKS/KOLB N/A       63  30  29 S10               PIMA CO DEQ
AJO/12TH       N/A       65  35  33 S14               PIMA CO DEQ
FAIRGROUNDS    N/A       63 N/A N/A SW12              PIMA CO DEQ
SAGUARO        N/A       65  33  30 SW6G13            *SABINO CYN
SAN CARLOS     N/A       48  38  69 NW3               *SAN CARLOS
GREEN VALLEY   N/A       62  35  36 S21               PIMA CO DEQ
HORSE CAMP CYN N/A       52  34  51 E5G11             *ARAVAIPA CYN
RINCON MTNS    N/A       34  33  95 SW5G16            *NR MANNING CAMP
$$

AZZ509>511-232015-
LOCATION       SKY/WX    TMP DP  RH WIND       PRES   REMARKS
SAFFORD        SUNNY     61  32  33 E12G20    29.90F
STRAY HORSE    N/A       35  24  64 N/A               *
TRAIL CABIN    N/A       47  30  51 SE7G10            *N OF GRANVILLE
BLACK HILLS    NOT AVBL
DRY LAKE       N/A       35  33  93 S10G16            *NATANES MTNS
NOON CREEK     N/A       53  31  43 SE8G17            *PINALENO MTNS
COLUMBINE      N/A       30  28  92 SW8G18            *PINALENO MTNS
GUTHRIE        N/A       43  26  50 S15G21            *SW OF GUTHRIE
$$

AZZ502-503-513-232015-
LOCATION       SKY/WX    TMP DP  RH WIND       PRES   REMARKS
NOGALES        PTSUNNY   61  39  44 SW20G30   29.99F
SELLS          N/A       60  43  54 W13G22            *
SASABE         N/A       61  41  48 SW17G23           *ALTAR VLY
HOPKINS        N/A       43  36  75 SW16G24           *SANTA RITA MTNS
CARR CYN       N/A       52  28  40 S4G15             *W OF HEREFORD
$$

AZZ507-508-512-232015-
LOCATION       SKY/WX    TMP DP  RH WIND       PRES   REMARKS
SIERRA VISTA   MOSUNNY   60  36  40 SW18G32   29.97F
DOUGLAS        MOSUNNY   62  28  27 SE9G18    29.98F
EMPIRE MTNS    NOT AVBL
MULESHOE RANCH N/A       57  28  33 SW7G15            *PRESERVE
HEADQUARTERS   NOT AVBL
$$

.............................NOTES.............................
THIS IS AN AUTOMATED COLLECTIVE WITH MINIMAL QUALITY CONTROL.
PIMA CO DEQ SITES HAVE NONSTANDARD WIND SENSOR HEIGHTS.
PIMA CO DEQ SITES DO NOT REPORT WIND GUSTS.
* INDICATES WIND SENSORS LOCATED AT 20 FEET INSTEAD OF 33 FEET.
..............................KEY..............................
SKY/WX - SKY CONDITION/WEATHER
TMP    - TEMPERATURE IN FAHRENHEIT
DP     - DEWPOINT IN FAHRENHEIT
RH     - RELATIVE HUMIDITY IN PERCENT
WIND   - DIRECTION AND SPEED IN MILES PER HOUR (MPH)
VRB    - VARIABLE WIND DIRECTION
PRES   - MEAN SEA LEVEL PRESSURE IN INCHES OF MERCURY
         F - FALLING PRESSURE   R - RISING PRESSURE
         S - STEADY PRESSURE
VSB    - VISIBILITY IN MILES
HX     - HEAT INDEX IN FAHRENHEIT
WCI    - WIND CHILL INDEX IN FAHRENHEIT
N/A    - NOT AVAILABLE
AFB    - AIR FORCE BASE
         DAVIS-MONTHAN IS DAVIS-MONTHAN AIR FORCE BASE
CYN    - CANYON
MTNS   - MOUNTAINS
NCA    - NATIONAL CONSERVATION AREA
NR     - NEAR
VLY    - VALLEY
CONTL  - CONTINENTAL
PIMA CO DEQ - PIMA COUNTY DEPT OF ENVIRONMENTAL QUALITY



USA.gov is the U.S. government's official web portal to all federal, state and local government web resources and services.